GW7199 Weather Reports


Display with metric or nautical units.
time (UTC)temp
F
wind
direction
speed
MPH
gust
MPH
rain 1hr
in
rain 24hr
in
rain mn
in
humidity
%
barometer
mb
20260905234752 84 69 0.0 0.0 0.00 0.00 0.00 77 1012.0
20260905234247 84 69 0.0 0.0 0.00 0.00 0.00 78 1012.3
20260905233742 85 69 0.0 0.0 0.00 0.00 0.00 77 1012.5
20260905233242 85 69 0.0 0.0 0.00 0.00 0.00 76 1012.2
20260905232736 86 69 0.0 0.0 0.00 0.00 0.00 75 1012.2
20260905232232 86 69 0.0 0.0 0.00 0.00 0.00 75 1011.9
20260905231727 0 0.0 0.0 0.00 0.00 0.00 1012.2
20260905231223 88 68 0.0 0.0 0.00 0.00 0.00 66 1012.4
20260905230719 88 68 0.0 0.0 0.00 0.00 0.00 66 1012.4
20260905230216 88 68 0.0 0.0 0.00 0.00 0.00 66 1012.3
20260905225716 89 68 0.0 0.0 0.00 0.00 0.00 63 1012.0
20260905225211 89 68 0.0 0.0 0.00 0.00 0.00 60 1012.2
20260905224710 89 68 0.0 0.0 0.00 0.00 0.00 61 1011.9
20260905224206 89 68 0.0 0.0 0.00 0.00 0.00 60 1011.9
20260905223702 0 0.0 0.0 0.00 0.00 0.00 1012.2
20260905223158 0 0.0 0.0 0.00 0.00 0.00 1012.0
20260905222654 91 19 1.0 1.0 0.00 0.00 0.00 55 1011.9
20260905222154 91 19 1.0 1.0 0.00 0.00 0.00 55 1011.8
20260905221649 0 0.0 0.0 0.00 0.00 0.00 1012.2
20260905221146 0 0.0 0.0 0.00 0.00 0.00 1012.0
20260905220647 0 0.0 0.0 0.00 0.00 0.00 1011.8
20260905220143 0 0.0 0.0 0.00 0.00 0.00 1012.0
20260905215642 91 2 1.0 1.0 0.00 0.00 0.00 54 1011.9
20260905215138 91 2 1.0 1.0 0.00 0.00 0.00 54 1012.0
20260905214634 91 333 1.0 1.0 0.00 0.00 0.00 55 1012.0
20260905214129 92 23 3.0 3.0 0.00 0.00 0.00 54 1011.7
20260905213624 92 321 0.0 0.0 0.00 0.00 0.00 52 1011.9
20260905213119 92 321 2.0 2.0 0.00 0.00 0.00 52 1011.9
20260905212615 92 16 2.0 2.0 0.00 0.00 0.00 51 1012.0
20260905212114 92 334 2.0 3.0 0.00 0.00 0.00 51 1011.8
20260905211609 92 334 2.0 3.0 0.00 0.00 0.00 51 1012.0
20260905211105 0 0.0 0.0 0.00 0.00 0.00 1011.7
20260905210601 0 0.0 0.0 0.00 0.00 0.00 1012.2
20260905210055 93 29 3.0 3.0 0.00 0.00 0.00 50 1012.2
20260905205555 93 29 3.0 3.0 0.00 0.00 0.00 50 1012.2
20260905205054 93 66 2.0 3.0 0.00 0.00 0.00 51 1012.2
20260905204549 94 32 1.0 1.0 0.00 0.00 0.00 48 1012.2
20260905204044 95 312 1.0 2.0 0.00 0.00 0.00 48 1012.0
20260905203544 94 332 0.0 0.0 0.00 0.00 0.00 48 1012.3
20260905203039 94 329 3.0 3.0 0.00 0.00 0.00 48 1012.2
20260905202535 94 19 1.0 2.0 0.00 0.00 0.00 48 1012.5
20260905202030 94 353 2.0 2.0 0.00 0.00 0.00 49 1012.4
20260905201526 94 19 2.0 2.0 0.00 0.00 0.00 47 1012.8
20260905201025 96 27 0.0 0.0 0.00 0.00 0.00 47 1012.7
20260905200521 96 27 1.0 1.0 0.00 0.00 0.00 48 1012.7
20260905200021 96 299 2.0 2.0 0.00 0.00 0.00 46 1012.8
20260905195520 96 241 0.0 1.0 0.00 0.00 0.00 49 1012.7
20260905195016 95 315 2.0 2.0 0.00 0.00 0.00 46 1012.8
20260905194516 96 4 1.0 1.0 0.00 0.00 0.00 45 1013.0
20260905194015 96 250 0.0 0.0 0.00 0.00 0.00 49 1013.0
20260905193510 96 279 1.0 1.0 0.00 0.00 0.00 50 1013.0
20260905193005 95 80 1.0 2.0 0.00 0.00 0.00 45 1013.1
20260905192500 94 31 1.0 2.0 0.00 0.00 0.00 50 1013.2
20260905191956 95 47 1.0 2.0 0.00 0.00 0.00 48 1013.5
20260905191455 96 274 0.0 1.0 0.00 0.00 0.00 47 1013.2
20260905190954 94 63 0.0 1.0 0.00 0.00 0.00 49 1013.1
20260905190452 93 36 2.0 2.0 0.00 0.00 0.00 47 1013.3
20260905185951 95 326 3.0 3.0 0.00 0.00 0.00 47 1013.3
20260905185447 94 296 1.0 2.0 0.00 0.00 0.00 46 1013.5
20260905184945 96 331 1.0 4.0 0.00 0.00 0.00 44 1013.6
20260905184440 96 265 1.0 3.0 0.00 0.00 0.00 52 1013.5
20260905183938 96 298 2.0 3.0 0.00 0.00 0.00 44 1013.7
20260905183433 96 218 2.0 4.0 0.00 0.00 0.00 47 1013.5
20260905182929 95 153 2.0 4.0 0.00 0.00 0.00 51 1013.8
20260905182427 96 180 2.0 4.0 0.00 0.00 0.00 50 1014.0
20260905181923 96 202 0.0 1.0 0.00 0.00 0.00 44 1013.9
20260905181418 95 184 1.0 3.0 0.00 0.00 0.00 50 1014.0
20260905180917 95 186 3.0 4.0 0.00 0.00 0.00 48 1014.0
20260905180412 95 250 2.0 3.0 0.00 0.00 0.00 47 1014.0
20260905175912 94 148 0.0 1.0 0.00 0.00 0.00 44 1014.2
20260905175412 94 172 2.0 4.0 0.00 0.00 0.00 49 1014.1
20260905174907 94 186 2.0 3.0 0.00 0.00 0.00 53 1014.3
20260905174403 93 227 1.0 3.0 0.00 0.00 0.00 54 1014.2
20260905173858 93 146 3.0 4.0 0.00 0.00 0.00 47 1014.1
20260905173354 93 176 1.0 4.0 0.00 0.00 0.00 50 1014.2
20260905172849 93 221 2.0 4.0 0.00 0.00 0.00 50 1014.3
20260905172347 93 178 2.0 2.0 0.00 0.00 0.00 51 1014.5
20260905171843 91 277 2.0 3.0 0.00 0.00 0.00 52 1014.5
20260905171340 91 121 2.0 6.0 0.00 0.00 0.00 52 1014.5
20260905170836 91 156 2.0 3.0 0.00 0.00 0.00 52 1014.4
20260905170332 91 115 4.0 4.0 0.00 0.00 0.00 51 1014.9
20260905165831 91 181 1.0 2.0 0.00 0.00 0.00 47 1014.6
20260905165327 91 271 2.0 7.0 0.00 0.00 0.00 51 1014.7
20260905164826 91 125 2.0 2.0 0.00 0.00 0.00 49 1014.7
20260905164321 90 247 1.0 3.0 0.00 0.00 0.00 54 1014.9
20260905163817 91 136 2.0 3.0 0.00 0.00 0.00 51 1015.0
20260905163313 91 254 1.0 4.0 0.00 0.00 0.00 55 1014.8
20260905162809 90 232 3.0 4.0 0.00 0.00 0.00 59 1014.8
20260905162309 90 242 2.0 6.0 0.00 0.00 0.00 55 1014.7
20260905161803 90 157 2.0 4.0 0.00 0.00 0.00 54 1015.0
20260905161302 90 223 2.0 3.0 0.00 0.00 0.00 57 1014.8
20260905160801 89 162 2.0 3.0 0.00 0.00 0.00 57 1014.8
20260905160301 89 172 4.0 6.0 0.00 0.00 0.00 58 1014.7
20260905155756 88 201 2.0 3.0 0.00 0.00 0.00 58 1014.9
20260905155254 89 207 4.0 4.0 0.00 0.00 0.00 56 1015.1
20260905154749 88 152 2.0 3.0 0.00 0.00 0.00 57 1015.1
20260905154245 88 167 1.0 4.0 0.00 0.00 0.00 55 1015.2
20260905153740 87 184 2.0 6.0 0.00 0.00 0.00 59 1015.3
20260905153236 87 160 1.0 4.0 0.00 0.00 0.00 59 1015.5
20260905152731 86 139 2.0 3.0 0.00 0.00 0.00 61 1015.4
20260905152230 86 161 2.0 7.0 0.00 0.00 0.00 58 1015.5
20260905151730 86 138 4.0 6.0 0.00 0.00 0.00 60 1015.4
20260905151227 86 121 2.0 3.0 0.00 0.00 0.00 59 1015.5
20260905150726 85 156 3.0 3.0 0.00 0.00 0.00 61 1015.6
20260905150226 83 148 1.0 3.0 0.00 0.00 0.00 63 1015.4
20260905145723 82 129 4.0 4.0 0.00 0.00 0.00 66 1015.7
20260905145218 80 101 1.0 3.0 0.00 0.00 0.00 70 1015.5
20260905144717 80 115 4.0 6.0 0.00 0.00 0.00 68 1015.6
20260905144212 80 141 3.0 4.0 0.00 0.00 0.00 68 1015.6
20260905143711 81 133 1.0 4.0 0.00 0.00 0.00 70 1015.8
20260905143206 83 129 4.0 6.0 0.00 0.00 0.00 67 1015.7
20260905142704 83 112 2.0 11.0 0.00 0.00 0.00 68 1015.9
20260905142205 82 92 2.0 6.0 0.00 0.00 0.00 70 1016.1
20260905141700 81 177 2.0 3.0 0.00 0.00 0.00 72 1015.8
20260905141156 80 118 3.0 4.0 0.00 0.00 0.00 72 1015.8
20260905140651 79 102 3.0 3.0 0.00 0.00 0.00 75 1015.8
20260905140151 79 63 2.0 6.0 0.00 0.00 0.00 75 1016.0
20260905135646 78 126 5.0 7.0 0.00 0.00 0.00 76 1015.8
20260905135141 77 100 3.0 3.0 0.00 0.00 0.00 79 1015.8
20260905134636 77 70 2.0 3.0 0.00 0.00 0.00 78 1015.8
20260905134134 76 69 5.0 8.0 0.00 0.00 0.00 79 1015.8
20260905133630 75 76 4.0 6.0 0.00 0.00 0.00 81 1016.1
20260905133130 74 11 3.0 6.0 0.00 0.00 0.00 81 1016.2
20260905132630 73 50 4.0 7.0 0.00 0.00 0.00 83 1016.2
20260905132125 73 66 4.0 11.0 0.00 0.00 0.00 83 1016.2
20260905131620 73 28 7.0 10.0 0.00 0.00 0.00 83 1016.0
20260905131115 73 91 5.0 7.0 0.00 0.00 0.00 84 1015.9
20260905130615 73 65 6.0 9.0 0.00 0.00 0.00 83 1016.2
20260905130114 74 70 5.0 7.0 0.00 0.00 0.00 83 1016.1
20260905125609 74 88 5.0 7.0 0.00 0.00 0.00 82 1015.9
20260905125104 74 48 7.0 9.0 0.00 0.00 0.00 82 1015.8
20260905124601 74 43 5.0 9.0 0.00 0.00 0.00 82 1016.1
20260905124057 74 38 3.0 8.0 0.00 0.00 0.00 82 1016.2
20260905123551 74 26 2.0 3.0 0.00 0.00 0.00 82 1015.8
20260905123049 74 57 2.0 2.0 0.00 0.00 0.00 83 1015.5
20260905122548 74 86 2.0 3.0 0.00 0.00 0.00 83 1015.4
20260905122043 74 88 2.0 3.0 0.00 0.00 0.00 82 1015.4
20260905121544 74 59 2.0 3.0 0.00 0.00 0.00 82 1015.5
20260905121039 74 76 4.0 7.0 0.00 0.00 0.00 82 1015.5
20260905120538 74 90 3.0 7.0 0.00 0.00 0.00 82 1015.4
20260905120033 74 81 3.0 7.0 0.00 0.00 0.00 82 1015.4
20260905115532 74 68 3.0 4.0 0.00 0.00 0.00 82 1015.4
20260905115027 74 64 5.0 7.0 0.00 0.00 0.00 83 1015.1
20260905114526 75 64 2.0 6.0 0.00 0.00 0.00 83 1015.1
20260905114026 75 73 4.0 6.0 0.00 0.00 0.00 83 1015.1
20260905113521 75 36 3.0 6.0 0.00 0.00 0.00 85 1015.4
20260905113016 75 63 5.0 10.0 0.00 0.00 0.00 84 1014.8
20260905112511 75 57 4.0 7.0 0.00 0.00 0.00 88 1014.9
20260905112007 74 58 2.0 3.0 0.00 0.00 0.00 92 1015.0
20260905111501 74 76 1.0 3.0 0.00 0.00 0.00 95 1014.8
20260905110955 74 52 1.0 2.0 0.00 0.00 0.00 96 1014.9
20260905110455 74 89 3.0 7.0 0.00 0.00 0.00 95 1014.6
20260905105955 74 289 1.0 2.0 0.00 0.00 0.00 95 1014.3
20260905105455 74 288 0.0 1.0 0.00 0.00 0.00 95 1014.0
20260905104954 74 288 1.0 1.0 0.00 0.00 0.00 95 1013.9
20260905104451 74 288 1.0 1.0 0.00 0.00 0.00 95 1014.1
20260905103951 74 292 2.0 2.0 0.00 0.00 0.00 95 1014.0
20260905103446 74 64 2.0 2.0 0.00 0.00 0.00 94 1014.3
20260905102942 74 65 0.0 0.0 0.00 0.00 0.00 94 1014.1
20260905102438 74 65 0.0 0.0 0.00 0.00 0.00 94 1014.1
20260905101933 74 44 3.0 3.0 0.00 0.00 0.00 95 1014.3
20260905101431 74 4 3.0 3.0 0.00 0.00 0.00 95 1014.0
20260905100926 74 4 1.0 1.0 0.00 0.00 0.00 95 1013.9
20260905100422 74 4 1.0 2.0 0.00 0.00 0.00 95 1014.1
20260905095921 74 6 0.0 0.0 0.00 0.00 0.00 94 1014.1
20260905095421 74 6 0.0 0.0 0.00 0.00 0.00 94 1014.1
20260905094921 74 6 0.0 0.0 0.00 0.00 0.00 95 1014.0
20260905094417 74 6 1.0 3.0 0.00 0.00 0.00 95 1013.8
20260905093916 74 255 0.0 0.0 0.00 0.00 0.00 94 1013.5
20260905093412 74 254 0.0 0.0 0.00 0.00 0.00 94 1013.5
20260905092907 74 254 0.0 0.0 0.00 0.00 0.00 94 1013.4
20260905092402 74 254 0.0 0.0 0.00 0.00 0.00 94 1013.4
20260905091857 74 254 0.0 0.0 0.00 0.00 0.00 95 1013.5
20260905091356 74 254 0.0 0.0 0.00 0.00 0.00 95 1013.3
20260905090855 74 254 0.0 0.0 0.00 0.00 0.00 95 1013.4
20260905090351 74 254 0.0 0.0 0.00 0.00 0.00 94 1013.4
20260905085850 74 254 0.0 0.0 0.00 0.00 0.00 94 1013.4
20260905085345 74 254 0.0 0.0 0.00 0.00 0.00 95 1013.4
20260905084841 74 254 0.0 0.0 0.00 0.00 0.00 95 1013.5
20260905084340 74 254 0.0 0.0 0.00 0.00 0.00 95 1013.3
20260905083835 74 254 0.0 0.0 0.00 0.00 0.00 95 1013.2
20260905083331 74 254 0.0 0.0 0.00 0.00 0.00 95 1013.6
20260905082826 74 254 0.0 0.0 0.00 0.00 0.00 95 1013.2
20260905082323 74 254 0.0 0.0 0.00 0.00 0.00 95 1013.3
20260905081822 74 254 0.0 0.0 0.00 0.00 0.00 95 1013.3
20260905081318 74 254 0.0 0.0 0.00 0.00 0.00 95 1013.5
20260905080817 74 254 0.0 0.0 0.00 0.00 0.00 95 1013.5
20260905080312 74 254 0.0 0.0 0.00 0.00 0.00 95 1013.5
20260905075810 74 254 0.0 0.0 0.00 0.00 0.00 95 1013.4
20260905075310 74 254 0.0 0.0 0.00 0.00 0.00 95 1013.7
20260905074809 74 254 0.0 0.0 0.00 0.00 0.00 95 1013.7
20260905074306 74 254 0.0 0.0 0.00 0.00 0.00 95 1013.6
20260905073801 74 254 0.0 0.0 0.00 0.00 0.00 94 1013.6
20260905073256 74 254 1.0 1.0 0.00 0.00 0.00 94 1013.8
20260905072755 75 254 0.0 0.0 0.00 0.00 0.00 94 1013.7
20260905072251 75 254 0.0 0.0 0.00 0.00 0.00 94 1013.9
20260905071748 75 254 0.0 0.0 0.00 0.00 0.00 94 1013.7
20260905071243 75 254 0.0 0.0 0.00 0.00 0.00 93 1014.1
20260905070738 76 254 0.0 0.0 0.00 0.00 0.00 93 1014.0
20260905070234 76 254 0.0 0.0 0.00 0.00 0.00 94 1013.7
20260905065733 75 254 0.0 0.0 0.00 0.00 0.00 95 1014.0
20260905065227 75 255 0.0 0.0 0.00 0.00 0.00 95 1013.9
20260905064722 75 255 0.0 0.0 0.00 0.00 0.00 94 1014.1
20260905064218 75 255 0.0 0.0 0.00 0.00 0.00 94 1014.3
20260905063716 76 255 0.0 0.0 0.00 0.00 0.00 93 1014.4
20260905063213 76 255 0.0 0.0 0.00 0.00 0.00 94 1014.2
20260905062708 76 255 0.0 0.0 0.00 0.00 0.00 94 1014.4
20260905062208 75 255 0.0 0.0 0.00 0.00 0.00 95 1014.3
20260905061707 75 255 0.0 1.0 0.00 0.00 0.00 95 1014.4
20260905061202 75 255 0.0 0.0 0.00 0.00 0.00 94 1014.5
20260905060657 75 255 0.0 0.0 0.00 0.00 0.00 94 1014.4
20260905060154 75 255 0.0 0.0 0.00 0.00 0.00 94 1014.6
20260905055652 75 255 0.0 0.0 0.00 0.00 0.00 95 1014.6
20260905055148 75 255 0.0 0.0 0.00 0.00 0.00 94 1014.3
20260905054643 75 255 0.0 0.0 0.00 0.00 0.00 94 1014.5
20260905054139 75 255 0.0 0.0 0.00 0.00 0.00 94 1014.5
20260905053638 76 255 0.0 0.0 0.00 0.00 0.00 94 1014.8
20260905053133 76 255 0.0 0.0 0.00 0.00 0.00 94 1014.8
20260905052633 76 255 0.0 0.0 0.00 0.00 0.00 94 1014.5
20260905052128 76 255 0.0 0.0 0.00 0.00 0.00 93 1014.8
20260905051623 76 255 0.0 0.0 0.00 0.00 0.00 93 1014.7
20260905051120 76 255 0.0 0.0 0.00 0.00 0.00 93 1014.7
20260905050616 76 255 0.0 0.0 0.00 0.00 0.00 94 1014.9
20260905050112 76 255 0.0 0.0 0.00 0.00 0.00 93 1014.7
20260905045612 76 255 0.0 0.0 0.00 0.00 0.00 93 1014.9
20260905045108 76 255 0.0 0.0 0.00 0.00 0.00 93 1014.8
20260905044607 76 255 0.0 0.0 0.00 0.00 0.00 94 1014.8
20260905044102 76 255 0.0 0.0 0.00 0.00 0.00 94 1015.0
20260905043601 76 255 0.0 1.0 0.00 0.00 0.00 93 1014.7
20260905043057 76 255 0.0 0.0 0.00 0.00 0.00 93 1015.0
20260905042555 77 255 0.0 0.0 0.00 0.00 0.00 93 1015.0
20260905042051 77 255 0.0 0.0 0.00 0.00 0.00 93 1015.2
20260905041546 77 255 0.0 0.0 0.00 0.00 0.00 93 1015.0
20260905041041 77 255 0.0 0.0 0.00 0.00 0.00 93 1014.9
20260905040541 77 255 1.0 1.0 0.00 0.00 0.00 93 1014.9
20260905040039 77 255 1.0 1.0 0.00 0.00 0.00 93 1014.9
20260905035535 77 255 0.0 0.0 0.00 0.00 0.00 93 1014.8
20260905035032 77 255 0.0 0.0 0.00 0.00 0.00 93 1014.8
20260905034528 77 255 0.0 0.0 0.00 0.00 0.00 93 1014.8
20260905034027 77 255 0.0 0.0 0.00 0.00 0.00 93 1014.9
20260905033526 77 255 0.0 0.0 0.00 0.00 0.00 93 1015.0
20260905033023 77 255 0.0 0.0 0.00 0.00 0.00 93 1015.2
20260905032518 77 255 0.0 0.0 0.00 0.00 0.00 93 1014.9
20260905032013 78 255 0.0 0.0 0.00 0.00 0.00 92 1015.0
20260905031509 78 255 1.0 1.0 0.00 0.00 0.00 91 1014.8
20260905031008 78 255 0.0 0.0 0.00 0.00 0.00 91 1014.9
20260905030504 78 255 0.0 0.0 0.00 0.00 0.00 90 1015.1
20260905030003 79 255 0.0 0.0 0.00 0.00 0.00 90 1014.9
20260905025458 79 255 0.0 0.0 0.00 0.00 0.00 91 1015.0
20260905024955 78 255 0.0 0.0 0.00 0.00 0.00 91 1015.0
20260905024455 78 255 0.0 0.0 0.00 0.00 0.00 91 1014.9
20260905023950 79 255 0.0 1.0 0.00 0.00 0.00 90 1014.9
20260905023445 79 255 0.0 0.0 0.00 0.00 0.00 89 1014.8
20260905022944 80 255 0.0 0.0 0.00 0.00 0.00 88 1014.8
20260905022439 81 255 0.0 0.0 0.00 0.00 0.00 85 1014.9
20260905021935 81 255 0.0 0.0 0.00 0.00 0.00 79 1014.6
20260905021434 81 255 1.0 1.0 0.00 0.00 0.00 80 1014.7
20260905020930 80 255 1.0 1.0 0.00 0.00 0.00 81 1014.6
20260905020430 81 255 0.0 0.0 0.00 0.00 0.00 81 1014.7
20260905015929 82 255 0.0 0.0 0.00 0.00 0.00 83 1014.5
20260905015428 82 255 0.0 0.0 0.00 0.00 0.00 76 1014.8
20260905014927 81 255 0.0 1.0 0.00 0.00 0.00 78 1014.6
20260905014423 81 255 0.0 1.0 0.00 0.00 0.00 80 1014.6
20260905013918 81 255 0.0 0.0 0.00 0.00 0.00 85 1014.5
20260905013415 81 255 0.0 0.0 0.00 0.00 0.00 85 1014.5
20260905012909 81 255 0.0 0.0 0.00 0.00 0.00 82 1014.5
20260905012405 81 255 0.0 0.0 0.00 0.00 0.00 82 1014.3
20260905011902 82 255 0.0 0.0 0.00 0.00 0.00 83 1014.3
20260905011356 82 255 0.0 0.0 0.00 0.00 0.00 77 1014.3
20260905010853 82 255 0.0 0.0 0.00 0.00 0.00 78 1014.1
20260905010353 83 255 0.0 0.0 0.00 0.00 0.00 76 1014.1
20260905005849 84 255 0.0 0.0 0.00 0.00 0.00 74 1014.0
20260905005344 84 255 0.0 0.0 0.00 0.00 0.00 76 1014.1
20260905004840 84 255 0.0 0.0 0.00 0.00 0.00 75 1014.2
20260905004339 85 255 0.0 0.0 0.00 0.00 0.00 73 1014.2
20260905003835 85 255 0.0 0.0 0.00 0.00 0.00 71 1014.0
20260905003331 86 255 0.0 0.0 0.00 0.00 0.00 69 1014.0
20260905002826 86 255 0.0 0.0 0.00 0.00 0.00 66 1014.0
20260905002326 86 255 0.0 1.0 0.00 0.00 0.00 65 1013.8
20260905001821 86 255 1.0 1.0 0.00 0.00 0.00 65 1013.9
20260905001320 86 258 1.0 1.0 0.00 0.00 0.00 65 1013.7
20260905000816 86 258 1.0 2.0 0.00 0.00 0.00 65 1013.7
20260905000311 86 258 1.0 2.0 0.00 0.00 0.00 66 1013.6
20260904235806 87 292 2.0 2.0 0.00 0.00 0.00 69 1013.8
20260904235305 87 338 1.0 2.0 0.00 0.00 0.00 67 1013.9